Location: Stockholm
(59.3293°N, 18.0686°E)
Time: 02:33:13
(UTC+02:00)

ISS - Pass Details

Date: 30 March 2019
Orbit: 408 x 410 km, 51.6° (Epoch: 24 April)

Event Time Altitude Azimuth Distance (km) Brightness Sun altitude
Rises 20:51:12 0° 261° (W) 2,340 0.6 -17.4°
Reaches altitude 10° 20:53:51 10° 239° (WSW) 1,476 -0.8 -17.7°
Enters shadow 20:55:27 15° 210° (SSW) 1,193 -1.6 -17.8°
